Retour au catalogue

GEESAT 6-04

ActifCommunicationsLEO
NORAD 65716·PAYLOAD·🇨🇳 China

Lancé Sep 24, 2025 depuis Yellow Sea Launch Area

Loading…

Prochains Passages (prochaines 24 heures)

TLE

FraisSource: Space-Track

Époque: Sep 14, 2026, 22:49 UTC

1 65716U 25214E   26257.95095689  .00001282  00000-0  18108-3 0  9996
2 65716  49.9842 252.2272 0009320 213.0444 146.9913 14.83597999 52832

Suivez GEESAT 6-04 en temps réel avec AllMySat

Download on the App Store